COSMOS 592

Satellite information

Favourite Embed

Satellite Type and Status

PAYLOADIN ORBIT

Key statistics

Satellite COSMOS 592 at a glance.

Uptime

19022

Days in orbit

Revolutions

≈ 12.6

Per day

Orbit

LEO

Low Earth Orbit

Inclination

74.0

Latest

Satellite identification and parameters

Extended collection of information and parameters for COSMOS 592.

Object identification

Identified? True

Debris? False

Object name: COSMOS 592

International designator: 1973-069E

Object number (NORAD): 6849

Object ID (CCSDS): 6849

Country: COMMONWEALTH OF INDEPENDENT STATES (CIS)

Current information (Y/N): Y

RCS size: MEDIUM

Orbital parameters

Period: 113.933 minutes

Inclination: 73.999 deg

SMA: 7785.011 km

Apoapsis: 1483.876 km

Periapsis: 1329.875 km

RAAN: 287.6074 deg

Eccentricy: 0.00989091

Argument of periapsis: 348.784 deg

Mean anomaly: 11.1013 deg

Mean motion: 12.63903616 rev/day

Mean motion (dot): 0.00000018 rev/day2

B* drag term: 0.00018840265 1/REarth

Two-line elements (TLE)

Creation date: Oct. 31, 2025, 3 a.m.

Reference frame: TEME

Reference center: EARTH

Epoch: Oct. 30, 2025, 9:51 a.m. UTC

TLE line 0: 0 COSMOS 592

TLE line 1: 1 06849U 73069E 25303.41049050 .00000018 00000-0 18840-3 0 9991

TLE line 2: 2 06849 73.9990 287.6074 0098909 348.7840 11.1013 12.63903616402638

Live tracking on map

Real-time ground track for satellite COSMOS 592.

In-orbit conjunctions

There are no conjunctions computed for COSMOS 592, at the moment. Check back to stay up to date, as we update our databases every day.

Go to all conjunctions

Associated space launch

Military communications satellites

COSMOS 592 was lifted into orbit during the mission ‘Kosmos-3M | Strela-1M 49-56’, on board a Kosmos-3M space rocket.

The launch took place on Oct. 2, 1973, 9:46 p.m. from 132/2.

For more information about the launch, click the button.

Launch to space Kosmos-3M | Strela-1M 49-56
Kosmos-3M | Strela-1M 49-56

Agency: N/A

Status: Launch Successful

Launch date: Oct. 2, 1973, 9:46 p.m. UTC

Rocket: Kosmos-3M

Launch pad: 132/2

Location: Plesetsk Cosmodrome, Russian Federation

...

Latest news about this satellite

There are no fresh news available about this satellite. Check back as we update our databases every day.


Newsletter sign-up

Weekly statistics, charts and insights to help you stay on top of the space industry.